Regional Weather Roundup
Issued by NWS Sioux Falls, SD

Home | Current Version | Previous Version | Text Only | Print | Product List | Glossary On
Versions: 1 2 3 4 5 6 7 8 9 10 11 12 13 14 15 16 17 18 19 20 21 22 23 24 25 26 27 28 29 30 31 32 33 34 35 36 37 38 39 40 41 42 43 44 45 46 47 48 49 50
000
ASUS43 KFSD 291510
RWRFSD

WEATHER ROUNDUP FOR SE SOUTH DAKOTA/SW MINNESOTA/NW IOWA
NATIONAL WEATHER SERVICE SIOUX FALLS SD
1000 AM CDT THU SEP 29 2016

NOTE: "FAIR" INDICATES FEW OR NO CLOUDS BELOW 12,000 FEET WITH NO
SIGNIFICANT WEATHER AND OR OBSTRUCTIONS TO VISIBILITY.


SDZ038>040-050-052>070-291600-
SOUTHEAST SOUTH DAKOTA

CITY           SKY/WX    TMP DP  RH WIND       PRES   REMARKS
BROOKINGS      SUNNY     52  48  86 CALM      30.48R
CHAMBERLAIN    SUNNY     55  50  83 SE8       30.44S
HURON          SUNNY     53  47  79 S9        30.47R
MADISON        FAIR      50  50 100 E3        30.48S
MITCHELL       SUNNY     52  46  80 SE5       30.48S
SIOUX FALLS    SUNNY     54  49  83 CALM      30.48R
WINNER         FAIR      58  46  64 S8        30.43S
YANKTON        SUNNY     54  48  82 E3        30.46S
$$

MNZ071-072-080-081-089-090-097-098-291600-
SOUTHWEST MINNESOTA

CITY           SKY/WX    TMP DP  RH WIND       PRES   REMARKS
FAIRMONT       FOG       49  49 100 N5        30.48R VSB 1/4
JACKSON        CLOUDY    52  50  93 NE5       30.48R
LUVERNE        SUNNY     52  46  82 E5        30.48R
MARSHALL       SUNNY     52  48  86 N3        30.50R
MONTEVIDEO     SUNNY     59  54  82 E5        30.51R
PIPESTONE      SUNNY     55  50  82 E3        30.47S
REDWOOD FALLS  CLOUDY    52  48  86 NE3       30.49R
TRACY          SUNNY     54  50  87 CALM      30.49R
WINDOM         MOSUNNY   54  48  82 NE5       30.48R
WORTHINGTON    PTSUNNY   52  49  89 E7        30.48S
$$

IAZ001>003-012>014-020>022-031-032-NEZ013-014-SDZ071-291600-
NORTHWEST IOWA

CITY           SKY/WX    TMP DP  RH WIND       PRES   REMARKS
CHEROKEE       SUNNY     53  52  99 N5        30.46S
DENISON        CLOUDY    52  50  93 NE5       30.43S FOG
ESTHERVILLE    CLOUDY    49  49 100 NE7       30.47R FOG
LE MARS          N/A     54  48  82 NE5       30.48R
ORANGE CITY    SUNNY     54  48  82 E5        30.47R
SHELDON        SUNNY     55  52  88 VRB6      30.46R
SIOUX CITY     SUNNY     55  50  83 CALM      30.47R
SPENCER        MOSUNNY   57  52  83 NE5       30.47R
STORM LAKE     SUNNY     55  52  88 NE6       30.45S
$$

ABBREVIATIONS USED IN REMARKS
   TC - TEMPERATURE IN CELSIUS
  WCI - WIND CHILL INDEX
   HX - HEAT INDEX
  VSB - VISIBILITY





USA.gov is the U.S. government's official web portal to all federal, state and local government web resources and services.